[[{"header":{"parameterUnit":"m.s-1","parameterCategory":1,"la1":30.2991,"la2":30.254,"lo1":-89.0895,"lo2":-89.0444,"dy":0.0017,"dx":0.0017,"nx":28,"ny":28,"refTime":"2023-07-31T21:00:00:Z","depth":0,"parameterNumber":2,"parameterNumberName":"U-component_of_WINDS"},"data":[0,0,0,0,0,0,0,0,0,0,0,0,0,0,0,0,0,0,0,0,0,0,0,0,0,0,0,0,0,0,0,0,0,0,0,0,0,0,0,0,0,0,0,0,0,0,0,0,0,0,0,0,0,0,0,0,0,0,1.1257,1.1258,0,1.1357,1.1358,1.1359,1.1389,1.1388,1.1388,1.1387,1.1488,1.1491,1.1494,0,0,0,0,0,0,0,0,0,0,0,0,0,1.1092,1.1095,1.1257,1.1259,1.126,1.1356,1.1358,1.1359,1.1389,1.1388,1.1388,1.1387,1.1487,1.149,1.1494,0,0,0,0,0,0,0,0,0,0,0,0,0,1.1174,1.1095,1.1257,1.1286,1.129,1.1356,1.1358,1.1359,1.1389,1.1388,1.1388,1.1387,1.1486,1.149,1.1495,1.1539,0,0,1.1509,1.1511,0,0,0,0,0,0,0,0,1.117,1.118,1.1281,1.1284,1.1289,1.136,1.1336,1.142,1.1389,1.1351,1.1387,1.1386,1.1446,1.1454,1.1474,1.1543,1.1548,1.151,1.1512,1.1514,1.1516,0,0,0,0,0,0,0,1.1164,1.1176,1.1297,1.1282,1.1287,1.1294,1.1305,1.1352,1.1401,1.1355,1.1357,1.1368,1.1448,1.1469,1.1476,1.1549,1.1509,1.1514,1.1517,1.1518,1.1659,1.166,0,0,0,0,0,0,1.1153,1.1171,1.1293,1.13,1.1226,1.1297,1.131,1.1338,1.1401,1.141,1.1369,1.1369,1.1462,1.1471,1.148,1.1535,1.1514,1.1519,1.1522,1.1658,1.1659,1.166,0,0,0,0,0,0,1.115,1.1164,1.1289,1.1236,1.1253,1.1301,1.1332,1.134,1.1361,1.1412,1.1421,1.1382,1.1461,1.1473,1.1524,1.1539,1.1521,1.1525,1.1657,1.1658,1.1659,1.1646,0,0,0,0,0,0,1.1145,1.1163,1.118,1.1236,1.1255,1.1332,1.1333,1.1342,1.137,1.1371,1.1426,1.1435,1.1462,1.1517,1.1528,1.1545,1.1529,1.1656,1.1657,1.1659,1.1645,1.1646,1.1647,0,0,0,0,0,1.1139,1.1172,1.1181,1.1195,1.1279,1.1333,1.1344,1.1374,1.1371,1.1389,1.1421,1.1433,1.1535,1.1521,1.1535,1.1553,1.1655,1.1657,1.1659,1.1644,1.1646,1.1647,0,0,0,0,0,0,1.1116,1.118,1.1191,1.1243,1.1282,1.1338,1.1361,1.1375,1.1416,1.1415,1.1451,1.1463,1.1511,1.1537,1.1521,1.1599,1.1595,1.16,1.158,1.1582,1.1583,1.1575,1.1533,0,0,0,0,0,1.1117,1.1157,1.121,1.1251,1.1271,1.1312,1.1337,1.1357,1.1399,1.1415,1.1452,1.1491,1.1532,1.1559,1.1599,1.1649,1.1661,1.1668,1.1669,1.167,1.1674,1.1701,1.1705,1.1667,1.1667,1.1667,0,0,1.112,1.116,1.1182,1.1248,1.1281,1.132,1.1326,1.1367,1.1396,1.1422,1.1471,1.1499,1.1546,1.1596,1.1619,1.1619,1.1687,1.1673,1.1673,1.1676,1.1704,1.1707,1.171,1.1668,1.1668,1.1668,0,0,1.1145,1.1179,1.1217,1.125,1.1299,1.1327,1.1336,1.1389,1.1408,1.1459,1.1478,1.1513,1.1584,1.1616,1.1641,1.1678,1.169,1.169,1.1696,1.1723,1.1726,1.1728,1.1741,1.1745,1.1693,1.1693,1.1693,0,1.1142,1.1202,1.1235,1.1275,1.1303,1.1328,1.1366,1.1396,1.1455,1.1474,1.1473,1.1561,1.1594,1.1651,1.166,1.168,1.1691,1.1683,1.1723,1.1726,1.1729,1.1741,1.1746,1.1693,1.1693,1.1693,1.1693,0,1.1196,1.1237,1.1262,1.1319,1.135,1.1389,1.1426,1.1453,1.147,1.1498,1.1548,1.1589,1.1638,1.1653,1.167,1.1713,1.1711,1.1716,1.1713,1.1732,1.1744,1.1748,1.1692,1.1692,1.1693,1.1693,0,0,1.1209,1.1284,1.1292,1.1318,1.1374,1.1407,1.1446,1.1494,1.1516,1.1557,1.159,1.1649,1.1654,1.1683,1.1704,1.1727,1.1752,1.1729,1.1731,1.1731,1.18,1.1796,1.1801,1.1761,1.1762,1.1763,1.1796,0,1.1241,1.1313,1.1343,1.1401,1.1439,1.1463,1.1497,1.1535,1.1562,1.1597,1.1626,1.1667,1.1671,1.1688,1.1712,1.1744,1.1766,1.1742,1.1792,1.1793,1.1779,1.1807,1.1803,1.1832,1.1801,1.1802,1.1803,0,1.1287,1.1328,1.139,1.1441,1.1458,1.1488,1.1534,1.1569,1.1611,1.1629,1.1661,1.1681,1.1722,1.1717,1.1775,1.1757,1.178,1.1798,1.18,1.1805,1.1799,1.1813,1.1843,1.1847,1.181,1.181,1.1809,0,1.129,1.136,1.1406,1.1428,1.1489,1.1509,1.1535,1.1578,1.1604,1.1645,1.1662,1.1707,1.1731,1.1764,1.1795,1.1789,1.1849,1.1847,1.1865,1.1864,1.1876,1.1875,1.1909,1.1891,1.1891,1.1891,1.1891,0,1.1321,1.1358,1.1408,1.1436,1.1478,1.1512,1.1552,1.1579,1.1617,1.165,1.1674,1.1704,1.1744,1.1779,1.1804,1.1847,1.1858,1.1873,1.1879,1.187,1.1868,1.1885,1.1884,1.1892,1.1892,1.1892,1.1891,0,1.1331,1.1366,1.1418,1.1471,1.1485,1.1513,1.1559,1.1587,1.1614,1.1656,1.1668,1.1711,1.1754,1.1788,1.1844,1.1861,1.1906,1.1913,1.1892,1.1895,1.191,1.1908,1.1956,1.1964,1.1941,1.1941,1.1941,0,1.1349,1.1378,1.1434,1.1458,1.1484,1.1523,1.1551,1.1585,1.1612,1.1663,1.1684,1.1729,1.1767,1.1834,1.187,1.1913,1.1921,1.1935,1.1928,1.1918,1.192,1.1918,1.1921,1.1936,1.1936,1.1936,1.1936,0,1.1376,1.1392,1.1431,1.1476,1.1508,1.1545,1.1582,1.16,1.1641,1.1671,1.1715,1.1744,1.1802,1.1845,1.1892,1.1918,1.1934,1.1938,1.1944,1.1936,1.1922,1.1929,1.1893,1.1936,1.1936,1.1936,1.1936,1.1936,1.139,1.1416,1.146,1.1502,1.1534,1.1568,1.1597,1.1628,1.1666,1.1715,1.1733,1.1778,1.182,1.1884,1.1911,1.1946,1.1948,1.1957,1.1959,1.1961,1.1959,1.1916,1.1955,1.1955,1.1955,1.1955,1.1955,0,1.1418,1.1447,1.1486,1.1537,1.157,1.1582,1.1624,1.1651,1.1691,1.1728,1.1765,1.1815,1.1858,1.1897,1.1941,1.1962,1.197,1.1973,1.1971,1.1977,1.1956,1.1946,1.1965,1.1965,1.1965,1.1965,1.1965,1.1965,1.1436,1.1481,1.1502,1.1563,1.1592,1.1637,1.166,1.1691,1.1721,1.1777,1.1812,1.1838,1.1876,1.1923,1.1962,1.1973,1.1988,1.1988,1.2,1.198,1.1978,1.1977,1.1968,1.1991,1.1991,1.2018,1.2018,1.2018]},{"header":{"parameterUnit":"m.s-1","parameterCategory":1,"la1":30.2991,"la2":30.254,"lo1":-89.0895,"lo2":-89.0444,"dy":0.0017,"dx":0.0017,"nx":28,"ny":28,"refTime":"2023-07-31T21:00:00:Z","depth":0,"parameterNumber":3,"parameterNumberName":"V-component_of_WINDS"},"data":[0,0,0,0,0,0,0,0,0,0,0,0,0,0,0,0,0,0,0,0,0,0,0,0,0,0,0,0,0,0,0,0,0,0,0,0,0,0,0,0,0,0,0,0,0,0,0,0,0,0,0,0,0,0,0,0,0,0,3.2819,3.2818,0,3.276,3.2759,3.2758,3.2657,3.2655,3.2653,3.2651,3.2593,3.2593,3.2593,0,0,0,0,0,0,0,0,0,0,0,0,0,3.2846,3.2846,3.2819,3.2818,3.2818,3.276,3.2759,3.2758,3.2657,3.2655,3.2653,3.2651,3.2592,3.2593,3.2593,0,0,0,0,0,0,0,0,0,0,0,0,0,3.2816,3.2846,3.2819,3.276,3.2754,3.276,3.2759,3.2758,3.2658,3.2655,3.2652,3.2649,3.2592,3.2593,3.2593,3.2652,0,0,3.2594,3.2594,0,0,0,0,0,0,0,0,3.2817,3.2815,3.277,3.2764,3.2758,3.2713,3.2747,3.2723,3.2659,3.2695,3.2651,3.2648,3.2635,3.2632,3.2627,3.2649,3.2647,3.2594,3.2594,3.2594,3.2594,0,0,0,0,0,0,0,3.282,3.2817,3.2796,3.2769,3.2762,3.2737,3.273,3.2742,3.2682,3.2691,3.2684,3.2678,3.2631,3.2627,3.2625,3.2646,3.2594,3.2594,3.2594,3.2595,3.2712,3.2715,0,0,0,0,0,0,3.283,3.2819,3.2798,3.2794,3.2781,3.2739,3.2731,3.273,3.2681,3.2671,3.268,3.2673,3.2628,3.2624,3.2622,3.2687,3.2594,3.2595,3.2595,3.2709,3.2713,3.2716,0,0,0,0,0,0,3.2831,3.2829,3.28,3.2804,3.2799,3.2742,3.2742,3.2731,3.2726,3.2673,3.2662,3.2687,3.2625,3.2622,3.2645,3.2684,3.2595,3.2595,3.2706,3.2711,3.2715,3.2818,0,0,0,0,0,0,3.2832,3.283,3.2852,3.2806,3.2799,3.2824,3.2744,3.2731,3.2726,3.2717,3.2676,3.2667,3.2623,3.2645,3.2645,3.2682,3.2595,3.2702,3.2708,3.2713,3.2811,3.2826,3.2838,0,0,0,0,0,3.2834,3.2884,3.2854,3.2851,3.2825,3.2826,3.2822,3.277,3.273,3.2751,3.2717,3.2668,3.268,3.2648,3.2648,3.2686,3.27,3.2706,3.2713,3.2805,3.2823,3.2838,0,0,0,0,0,0,3.2937,3.2877,3.2842,3.2879,3.2858,3.2809,3.2834,3.2791,3.2782,3.2773,3.2709,3.2701,3.2732,3.2711,3.2677,3.2739,3.2682,3.2689,3.2752,3.2768,3.2782,3.2786,3.2595,0,0,0,0,0,3.2964,3.297,3.2917,3.2955,3.2946,3.2892,3.2891,3.2852,3.2829,3.282,3.2787,3.2766,3.2765,3.2766,3.2762,3.2808,3.2797,3.2833,3.2847,3.2858,3.2865,3.2886,3.2902,3.2738,3.2738,3.2738,0,0,3.302,3.2988,3.2995,3.2974,3.2954,3.2961,3.2886,3.2897,3.2902,3.2821,3.2841,3.2817,3.2789,3.2824,3.2837,3.2807,3.2907,3.2867,3.2876,3.2876,3.2895,3.291,3.2924,3.2742,3.2742,3.2741,0,0,3.3125,3.3102,3.313,3.3111,3.308,3.3044,3.3051,3.3008,3.2989,3.3007,3.2946,3.2952,3.2951,3.2934,3.2925,3.3023,3.2977,3.3024,3.3094,3.3116,3.3129,3.314,3.3174,3.3188,3.3031,3.3031,3.3031,0,3.3199,3.3207,3.315,3.3165,3.3157,3.3084,3.3112,3.3097,3.3067,3.3064,3.303,3.3027,3.3003,3.3032,3.3056,3.3052,3.3057,3.3028,3.3132,3.3142,3.3152,3.3184,3.3197,3.3037,3.3036,3.3035,3.3035,0,3.3299,3.3306,3.3332,3.3304,3.33,3.3321,3.3268,3.327,3.3232,3.32,3.3219,3.3188,3.3176,3.318,3.3144,3.3204,3.3186,3.3143,3.3084,3.3174,3.3203,3.3215,3.3045,3.3043,3.3041,3.304,0,0,3.3468,3.3407,3.3418,3.3404,3.3365,3.3369,3.3388,3.3375,3.3378,3.336,3.3373,3.3374,3.3334,3.3324,3.3285,3.3304,3.3383,3.3259,3.3257,3.3282,3.3446,3.3479,3.3494,3.3352,3.3355,3.3356,3.3448,0,3.3564,3.3591,3.354,3.3579,3.3585,3.3515,3.3531,3.3509,3.3479,3.3479,3.3446,3.3448,3.3395,3.3388,3.3404,3.337,3.3415,3.3363,3.3364,3.3365,3.3373,3.3509,3.3543,3.3631,3.346,3.3461,3.3463,0,3.3681,3.3667,3.3707,3.3665,3.3665,3.368,3.3664,3.3666,3.3639,3.3616,3.3605,3.3558,3.3573,3.3516,3.3535,3.3501,3.3498,3.3482,3.3484,3.3481,3.3419,3.351,3.3658,3.3672,3.348,3.3479,3.3478,0,3.3799,3.3791,3.3813,3.3804,3.3756,3.3768,3.3748,3.3718,3.3714,3.37,3.3697,3.3685,3.3679,3.3671,3.3623,3.3586,3.3648,3.3587,3.3629,3.363,3.3644,3.3644,3.3794,3.3644,3.3644,3.3644,3.3644,0,3.3912,3.3939,3.3866,3.388,3.3908,3.3849,3.3878,3.3852,3.3826,3.3833,3.3773,3.3781,3.3717,3.3718,3.3681,3.3702,3.37,3.3681,3.3671,3.3686,3.3689,3.3683,3.3676,3.3647,3.3646,3.3646,3.3645,0,3.4048,3.4001,3.402,3.3973,3.3961,3.3984,3.3943,3.3954,3.392,3.393,3.3929,3.3876,3.3874,3.3825,3.3814,3.3788,3.3825,3.3803,3.3834,3.3826,3.387,3.3867,3.4022,3.4039,3.3879,3.3881,3.3882,0,3.4123,3.4142,3.4096,3.4096,3.4079,3.4081,3.4076,3.4019,3.4016,3.3987,3.4001,3.3994,3.3986,3.3986,3.3947,3.3937,3.3915,3.397,3.3913,3.3928,3.3915,3.3914,3.3915,3.3982,3.3984,3.3986,3.3987,0,3.4261,3.4236,3.4231,3.4218,3.4213,3.42,3.4183,3.4187,3.4124,3.4124,3.4121,3.4115,3.4102,3.4096,3.4079,3.4059,3.4013,3.4005,3.4014,3.403,3.4046,3.4037,3.3866,3.4002,3.4,3.3999,3.3998,3.3998,3.4368,3.4381,3.4351,3.4347,3.4328,3.4313,3.4321,3.4288,3.4284,3.4269,3.4236,3.4238,3.421,3.4183,3.4166,3.4167,3.4139,3.4153,3.4156,3.416,3.4168,3.4047,3.4164,3.4164,3.4163,3.4163,3.4162,0,3.4502,3.4479,3.4476,3.4453,3.445,3.4407,3.4386,3.4386,3.4389,3.4366,3.4359,3.4356,3.4349,3.4309,3.4298,3.4307,3.4285,3.4306,3.4304,3.43,3.4194,3.4187,3.4323,3.4323,3.4323,3.4323,3.4323,3.4323,3.4571,3.4591,3.4563,3.4572,3.4549,3.455,3.4542,3.4528,3.451,3.4509,3.4503,3.4477,3.4447,3.4433,3.4425,3.4414,3.4412,3.444,3.4421,3.4323,3.4308,3.4293,3.4286,3.444,3.444,3.4526,3.4527,3.4528]}]]